This demonstration page uses our WeatherBlox Daily Observations layout. Learn more.

Left ArrowRight Arrow

39.92423, -83.80882

Hourly Observations for June 27, 2022

Temp ( °F °C ) Dew Point ( °F °C ) Humidity (%) Winds ( mph kmh ) Pressure ( in mb ) Visibility ( mi km ) Precip ( " mm )
12:56 am 00:56 Mostly Clear 67 19.4 60 15.6 79 79 NNW 7 11 30.09 1019 10 16 0.00 0.00
1:56 am 01:56 Clear 65 18.3 59 15 81 81 NNW 8 13 30.08 1019 10 16 0.00 0.00
2:56 am 02:56 Clear 63 17.2 57 13.9 81 81 NNW 5 7 30.08 1019 10 16 0.00 0.00
3:56 am 03:56 Clear 62 16.7 56 13.3 80 80 NNW 6 9 30.09 1019 10 16 0.00 0.00
4:56 am 04:56 Clear 60 15.6 55 12.8 84 84 NNW 6 9 30.10 1019 10 16 0.00 0.00
5:56 am 05:56 Clear 59 15 56 13.3 90 90 NNW 5 7 30.13 1020 10 16 0.00 0.00
6:56 am 06:56 Sunny 59 15 55 12.8 87 87 NNW 5 7 30.15 1021 10 16 0.00 0.00
7:56 am 07:56 Sunny 64 17.8 54 12.2 70 70 N 7 11 30.17 1022 10 16 0.00 0.00
8:56 am 08:56 Sunny 67 19.4 51 10.6 57 57 N 10 17 30.16 1021 10 16 0.00 0.00
9:56 am 09:56 Sunny 69 20.6 48 8.9 47 47 N 10 17 30.18 1022 10 16 0.00 0.00
10:56 am 10:56 Sunny 71 21.7 48 8.9 44 44 NW 5 7 30.20 1023 10 16 0.00 0.00
11:56 am 11:56 Sunny 73 22.8 48 8.9 41 41 VRB 5 7 30.19 1023 10 16 0.00 0.00
12:56 pm 12:56 Sunny 74 23.3 48 8.9 40 40 VRB 6 9 30.20 1023 10 16 0.00 0.00
1:56 pm 13:56 Sunny 76 24.4 49 9.4 39 39 NW 10 17 30.19 1022 10 16 0.00 0.00
2:56 pm 14:56 Mostly Sunny 76 24.4 50 10 40 40 W 10 17 30.17 1022 10 16 0.00 0.00
3:56 pm 15:56 Sunny 78 25.6 50 10 37 37 WNW 9 15 30.15 1021 10 16 0.00 0.00
4:56 pm 16:56 Mostly Sunny 78 25.6 51 10.6 39 39 NW 14 22 30.14 1021 10 16 0.00 0.00
5:56 pm 17:56 Mostly Sunny 77 25 50 10 39 39 NW 10 17 30.14 1021 10 16 0.00 0.00
6:56 pm 18:56 Sunny 76 24.4 47 8.3 36 36 NW 13 20 30.14 1021 10 16 0.00 0.00
7:56 pm 19:56 Sunny 73 22.8 44 6.7 35 35 NNW 13 20 30.16 1021 10 16 0.00 0.00
8:56 pm 20:56 Sunny 69 20.6 45 7.2 42 42 NW 7 11 30.16 1022 10 16 0.00 0.00
9:56 pm 21:56 Clear 64 17.8 46 7.8 52 52 NW 7 11 30.18 1022 10 16 0.00 0.00
10:56 pm 22:56 Clear 63 17.2 44 6.7 50 50 NNW 8 13 30.21 1023 10 16 0.00 0.00
11:56 pm 23:56 Clear 61 16.1 46 7.8 58 58 NNW 6 9 30.22 1023 10 16 0.00 0.00

Powered by AerisWeather